Retour au catalogue

AETHER-5

ActifCommunicationsSSO
NORAD 67376·PAYLOAD·🇨🇦 Canada

Lancé Jan 11, 2026 depuis Vandenberg Space Force Base

Loading…

Prochains Passages (prochaines 24 heures)

TLE

FraisSource: Space-Track

Époque: Sep 14, 2026, 10:10 UTC

1 67376U 26004P   26257.42368855  .00000375  00000-0  49269-4 0  9993
2 67376  97.8106 254.3540 0000558 168.0670 192.0559 14.85805012 36544

Suivez AETHER-5 en temps réel avec AllMySat

Download on the App Store